Other Public Products
Issued by NWS Grand Forks, ND

Home | Current Version | Previous Version | Graphics & Text | Print | Product List | Glossary On
Versions: 1 2 3 4 5 6 7 8 9 10 11 12 13 14 15 16 17 18 19 20 21 22 23 24 25 26 27 28 29 30 31 32 33 34 35 36 37 38 39 40 41 42 43 44 45 46 47 48 49 50
000
FPUS83 KFGF 021231
OPUFGF
PRAIRIE TO PINES WEATHER ROUNDUP
NATIONAL WEATHER SERVICE EASTERN NORTH DAKOTA/GRAND FORKS ND
600 AM CST MON MAR 02 2015

 **SATELLITE DATA USED TO AUGMENT SKY COVER AT AUTOMATED STATIONS**
 *****  WEATHER ACROSS EASTERN NORTH DAKOTA  *****

CITY           SKY/WX    TMP DP  RH WIND       PRES   REMARKS
GRAND FORKS    FAIR      -5  -9  83 SW6       30.34F WCI -18
6HR MIN TEMP:  -6; 6HR MAX TEMP:   6;

GRAND FORKS AF FAIR       3  -2  79 W5        30.33F WCI  -7
GRAND CITY NWS   N/A     -2 N/A N/A MISG        N/A
BUXTON         NOT AVBL
DEVILS LAKE    FAIR       3  -2  78 S6        30.23F WCI  -8
6HR MIN TEMP:  -2; 6HR MAX TEMP:   5;

FARGO          FAIR       4  -1  80 S3        30.37F
6HR MIN TEMP:   1; 6HR MAX TEMP:   8;

WAHPETON ARPT  FAIR       1  -4  78 SE6       30.40S WCI -10
$$

 *****  WEATHER ACROSS CENTRAL AND WESTERN NORTH DAKOTA  *****

CITY           SKY/WX    TMP DP  RH WIND       PRES   REMARKS
JAMESTOWN      FAIR      -4  -7  87 S6        30.28F WCI -16
6HR MIN TEMP:  -4; 6HR MAX TEMP:   8;

BISMARCK       CLEAR      6   3  87 SE9       30.23F WCI  -8
6HR MIN TEMP:   1; 6HR MAX TEMP:   7;

MINOT          FAIR       7   0  73 SE9       30.13F WCI  -7
6HR MIN TEMP:   6; 6HR MAX TEMP:  12;

MINOT AFB      FAIR       7   1  78 S9        30.13F WCI  -7
GARRISON         N/A      1  -2  87 CALM      30.15F
6HR MIN TEMP:   1; 6HR MAX TEMP:   4;

WILLISTON      PTCLDY    11   5  77 S5        30.03F WCI   3
6HR MIN TEMP:   2; 6HR MAX TEMP:  13;

DICKINSON      CLEAR     11   5  77 S14       30.04F WCI  -5
6HR MIN TEMP:   3; 6HR MAX TEMP:  11;

HETTINGER      CLEAR     11   6  81 SE12      30.09F WCI  -3
6HR MIN TEMP:   7; 6HR MAX TEMP:  12;

$$

 *****  OTHER OBSERVATIONS NORTHEAST NORTH DAKOTA  *****

CITY           SKY/WX    TMP DP  RH WIND       PRES   REMARKS
WALHALLA         N/A      0   0 100 CALM      30.28F
LANGDON        NOT AVBL
CAVALIER       FAIR       0  -2  92 SW5       30.29F WCI -10
GRAFTON        NOT AVBL
CANDO          FAIR      -8 N/A N/A SE8       30.21F WCI -23
FORT TOTTEN      N/A      4  -1  81 S5        29.95  WCI  -5
ROLLA          FAIR       1   0  92 SW9       30.16F WCI -14
RUGBY          FAIR       3   0  85 S10       30.18F WCI -12
 ***** THE ABOVE OBSERVATIONS ARE NON NWS ARE NOT QUALITY
        CONTROLLED AND MAY MIS-REPORT RAIN FOR SNOW...
$$

 *****  OTHER OBSERVATIONS SOUTHEAST NORTH DAKOTA *****

CITY           SKY/WX    TMP DP  RH WIND       PRES   REMARKS
COOPERSTOWN    NOT AVBL
VALLEY CITY    FAIR      -2  -4  92 S8        30.30F WCI -17
OAKES            N/A      0  -4  85 S12       30.34F WCI -18
GWINNER        SUNNY      5   1  85 SW13      30.36S WCI -12
SHEYENNE NWR     N/A     -1  -6  79 SW5       29.95S WCI -11
BUFFALO        NOT AVBL
WYNDMERE         N/A      1  -2  85 SW3         N/A
 ***** THE ABOVE OBSERVATIONS ARE NON NWS ARE NOT QUALITY
       CONTROLLED AND MAY MIS-REPORT RAIN FOR SNOW...
$$

  *****  WEATHER ACROSS NORTHERN MINNESOTA  *****

CITY           SKY/WX    TMP DP  RH WIND       PRES   REMARKS
FLAG ISLAND    FAIR      -9 -15  77 SE7       30.29R WCI -24
WARROAD        FAIR      -2  -8  78 SW3       30.31R
ROSEAU         FAIR      -2  -8  78 S3        30.31S
HALLOCK        FAIR      -6 -11  77 SE9       30.31S WCI -22
THF RVR FALLS  FAIR      -2  -6  84 CALM      30.32S
6HR MIN TEMP:  -4; 6HR MAX TEMP:   7;

HALSTAD          N/A     -3  -8  79 S6          N/A  WCI -15
FOSSTON        FAIR      -6  -9  84 S6        30.33F WCI -18
BAUDETTE       FAIR      -4 -10  75 SW5       30.30R WCI -15
6HR MIN TEMP: -10; 6HR MAX TEMP:   7;

WASKISH        FAIR      -4  -8  84 CALM      30.32S
CROOKSTON      FAIR      -4  -8  84 S7        30.36S WCI -18
$$
  *****  WEATHER ACROSS CENTRAL AND WEST MINNESOTA  *****

CITY           SKY/WX    TMP DP  RH WIND       PRES   REMARKS
BEMIDJI        FAIR      -3  -6  87 CALM      30.32S
PARK RAPIDS    FAIR      -4 -10  75 CALM      30.33F
6HR MIN TEMP:  -5; 6HR MAX TEMP:   5;

WADENA         FAIR      -2  -6  84 CALM      30.35F
DETROIT LAKES  FAIR       1  -2  85 S3        30.35F
MOORHEAD       FAIR       1   0  92 SE6       30.37F WCI -10
FERGUS FALLS   FAIR       1  -2  85 S6        30.43R WCI -10
ELBOW LAKE     FAIR       0  -4  85 S7        30.39R WCI -13
6HR MIN TEMP:  -1; 6HR MAX TEMP:   8;

MORRIS MN      FAIR       7   0  72 S5        30.40F WCI  -2
STAPLES        FAIR      -4  -8  84 CALM      30.36F
WHEATON        NOT AVBL
$$
  *****  WEATHER ELSEWHERE ACROSS MINNESOTA  *****

CITY           SKY/WX    TMP DP  RH WIND       PRES   REMARKS
DULUTH         FAIR       5   1  83 W7        30.32R WCI  -7
6HR MIN TEMP:   4; 6HR MAX TEMP:  12;

INTRNTL FALLS  FAIR     -12 -16  82 SW6       30.30R WCI -26
6HR MIN TEMP: -14; 6HR MAX TEMP:  10;

ELY            FAIR       0  -2  92 SW5       30.31R WCI -10
CLOQUET        FAIR       3   0  85 SW6       30.34S WCI  -8
BRAINERD       FAIR      -1  -4  87 CALM      30.37F
6HR MIN TEMP:  -4; 6HR MAX TEMP:   9;

HIBBING        FAIR      -6 -11  79 CALM      30.32R
6HR MIN TEMP:  -7; 6HR MAX TEMP:  10;

ALEXANDRIA     FAIR       1  -2  87 SW5       30.37F WCI  -9
6HR MIN TEMP:  -1; 6HR MAX TEMP:   8;

SAINT CLOUD    FAIR       5   2  87 CALM      30.42F
6HR MIN TEMP:   2; 6HR MAX TEMP:  14;

MINNEAPOLIS    FAIR      10   5  80 CALM      30.46F
6HR MIN TEMP:  10; 6HR MAX TEMP:  19;

$$

  *****  WEATHER ACROSS SOUTH DAKOTA  *****

CITY           SKY/WX    TMP DP  RH WIND       PRES   REMARKS
SIOUX FALLS    FAIR       3  -1  83 CALM      30.43F
6HR MIN TEMP:   3; 6HR MAX TEMP:  14;

BROOKINGS      NOT AVBL
WATERTOWN      FAIR      -1  -4  87 SE6       30.37F WCI -13
6HR MIN TEMP:  -4; 6HR MAX TEMP:   7;

HURON          PTCLDY     5   2  87 SE6       30.39F WCI  -6
6HR MIN TEMP:   2; 6HR MAX TEMP:   8;

SISSETON         N/A      5   0  79 SW8       30.38F WCI  -8
ABERDEEN       HAZE       4  -1  80 S5        30.37F VSB 3/4 WCI  -5
6HR MIN TEMP:  -3; 6HR MAX TEMP:   4;

MITCHELL       CLEAR      9   6  88 S9        30.42S WCI  -4
PIERRE         PTCLDY    13  10  88 SE7       30.27F WCI   3
6HR MIN TEMP:   6; 6HR MAX TEMP:  14;

MOBRIDGE       PTCLDY     9   6  88 SE9       30.23F WCI  -4
RAPID CITY     PTCLDY    16   8  71 SE9       30.04F WCI   4
6HR MIN TEMP:   9; 6HR MAX TEMP:  18;

$$

  *****  SOME WEATHER IN NEARBY STATES *****

CITY           SKY/WX    TMP DP  RH WIND       PRES   REMARKS
GLASGOW MT     MOCLDY    17   9  70 SE14      29.88F WCI   3
6HR MIN TEMP:  16; 6HR MAX TEMP:  18;

GREAT FALLS MT CLOUDY    29   9  43 SW14      29.78S WCI  18
6HR MIN TEMP:  29; 6HR MAX TEMP:  31;

CHEYENNE WY    CLOUDY    20  16  84 S13       29.97F FOG     WCI   7
6HR MIN TEMP:  19; 6HR MAX TEMP:  20; 6HR PCP: TRACE;

SCOTTSBLUFF NE CLOUDY    30  19  63 SE12      30.07F WCI  20
6HR MIN TEMP:  25; 6HR MAX TEMP:  30;

OMAHA NE       MOCLDY    19  15  84 E3        30.49R
6HR MIN TEMP:  18; 6HR MAX TEMP:  25;

DES MOINES IA  FAIR      19  12  74 CALM      30.51S
6HR MIN TEMP:  18; 6HR MAX TEMP:  22;

DAVENPORT IA   FAIR       5   1  83 W7        30.51R WCI  -7
6HR MIN TEMP:   4; 6HR MAX TEMP:  10;

CHICAGO IL     FAIR      14   8  77 W10       30.45R WCI   1
6HR MIN TEMP:  14; 6HR MAX TEMP:  19;

EAU CLAIRE WI  FAIR       5   1  83 CALM      30.45R
6HR MIN TEMP:   5; 6HR MAX TEMP:  18;

LA CROSSE WI   FAIR      12   8  84 NW5       30.47R WCI   4
6HR MIN TEMP:   9; 6HR MAX TEMP:  18;

$$

  *****  SOME NATIONAL WEATHER *****

CITY           SKY/WX    TMP DP  RH WIND       PRES   REMARKS
LA GUARDIA NY  CLOUDY    31  26  82 W6        30.04R


USA.gov is the U.S. government's official web portal to all federal, state and local government web resources and services.